{"data":{"norad_id":40889,"intl_designator":"2015-045A","name":"GSAT0205 (GALILEO 9)","alt_names":[],"object_type":"PAYLOAD","status":"ACTIVE","operator":null,"country":"ESA","launch_date":"2015-09-11","launch_site_code":"FRGUI","launch_vehicle":null,"mission":null,"orbit_class":"UNKNOWN","rcs_meters":9.5282,"size_class":null,"mass_kg":null,"dimensions":null,"purposes":["earth_obs","nav"],"wikipedia_slug":null,"has_3d_model":false,"image_url":null,"decayed_at":null,"tle_current":{"epoch":"2026-05-24T07:17:44.873376Z","epoch_age_seconds":142003,"freshness":"FRESH","line1":"1 40889U 15045A   26144.30399159 -.00000014  00000+0  00000+0 0  9994","line2":"2 40889  54.9357 222.4171 0006405 263.0112  96.9692  1.67409242 66562","mean_motion":1.67409242,"eccentricity":0.0006405,"inclination_deg":54.9357,"raan_deg":222.4171,"arg_perigee_deg":263.0112,"mean_anomaly_deg":96.9692,"bstar":0,"rev_number":6656,"period_min":860.16756470351,"perigee_km":23563.161656845,"apogee_km":23601.541042421,"semimajor_km":29960.488349633,"source":"CELESTRAK","updated_at":"2026-05-25T13:38:24.054252Z"}}}